User: anonymous   Login
Location: Ay?beleni
(36.6500°N, 30.3000°E)
Time: 13:23:14
(UTC+00:00)
Language:

H-2A R/B - Orbit

View from above orbital plane
View from above orbital plane
View from above satellite
View from above satellite

Ground track
Ground track

The orbit data is extracted from the following two-line orbital elements,

1 27601U 02056E   20191.83808373 +.00000036 +00000-0 +28037-4 0  9995
2 27601 098.2242 226.4583 0071509 210.1073 323.4515 14.31957591917893
Epoch (UTC): 09 July 2020 20:06:50
Eccentricity: 0.0071509
inclination: 98.2242°
perigee height: 734 km
apogee height: 836 km
right ascension of ascending node: 226.4583°
argument of perigee: 210.1073°
revolutions per day: 14.31957591
mean anomaly at epoch: 323.4515°
orbit number at epoch: 91789

The dashed part of the orbit path shows where the satellite is in the earth's shadow,  

DLR